Find Ekspress-AMU3

NORAD ID: 50002 Int'l Des: 2021-123 Owner: KS Country: RU operational
HEOCIRCULARGSOGEO

Live-Position

3D-Globus wird geladen...

Über Ekspress-AMU3

Beschreibung wird geladen...

Nächste Überflüge

Passes for default location (London). Set your location on the main map for personalized predictions.

Höhenverlauf

Loading altitude history...

Zweizeiliger Elementsatz

1 50002U 21123B 26119.11085622 -.00000325 00000-0 00000+0 0 9990
2 50002 0.0267 267.2293 0000484 27.3670 65.3969 1.00274552 6534
Epoch: 29. Apr. 2026 • Age: 24 hours

Aktueller Status

Höhe 35784.5 km
Geschwindigkeit 3.07 km/s
Subsatellitenpunkt 0.05°N, 103.02°E
Startdatum 13. Dez. 2021
Alter 4.3 years
Typ other

Technische Details

Klassifizierung Payload
Masse 2150.00 kg
Trockenmasse 1800.00 kg
Gesamtmasse 2150.00 kg
Länge 4.00 m
Durchmesser 2.00 m
Spannweite 15.00 m
Form Box + 2 Pan
Hersteller RESH
Bus-Typ Ekspress-1000N
Phasenstatus In Orbit
Besitzer/Staat KS/RU

Most Searched